Back to catalog

IRIDIUM 33 DEB

AlivePO
NORAD 35848·DEBRIS·🇺🇸 United States

Launched Sep 14, 1997 from Baikonur Cosmodrome

Loading…

Next Passes (next 24 hours)

TLE

AgingSource: Space-Track

Epoch: Sep 10, 2026, 07:11 UTC

1 35848U 97051SY  26253.29983433  .00007421  00000-0  87687-3 0  9992
2 35848  86.3825 253.2904 0006330 359.5367   0.5850 14.84530287707124

Track IRIDIUM 33 DEB in real time with AllMySat

Download on the App Store